TimeCDT,TemperatureF,Dew PointF,Humidity,Sea Level PressureIn,VisibilityMPH,Wind Direction,Wind SpeedMPH,Gust SpeedMPH,PrecipitationIn,Events,Conditions,WindDirDegrees,DateUTC
12:47 AM,69.8,66.2,88,29.93,6.0,East,4.6,-,N/A,,Scattered Clouds,100,2013-04-29 05:47:00
12:51 AM,71.1,66.9,87,29.92,6.0,East,3.5,-,N/A,,Partly Cloudy,100,2013-04-29 05:51:00
1:12 AM,71.6,68.0,88,29.92,5.0,East,3.5,-,N/A,,Mostly Cloudy,90,2013-04-29 06:12:00
1:51 AM,71.1,68.0,90,29.89,6.0,Calm,Calm,-,N/A,,Scattered Clouds,0,2013-04-29 06:51:00
2:51 AM,71.1,68.0,90,29.85,10.0,ENE,8.1,-,N/A,,Partly Cloudy,60,2013-04-29 07:51:00
3:51 AM,71.1,66.9,87,29.86,10.0,ESE,4.6,-,N/A,,Partly Cloudy,110,2013-04-29 08:51:00
4:51 AM,69.1,66.0,90,29.89,9.0,South,4.6,-,N/A,,Mostly Cloudy,190,2013-04-29 09:51:00
5:10 AM,69.8,66.2,88,29.89,7.0,SW,3.5,-,N/A,,Overcast,230,2013-04-29 10:10:00
5:51 AM,70.0,66.9,90,29.89,7.0,West,4.6,-,N/A,,Overcast,280,2013-04-29 10:51:00
6:51 AM,69.1,66.0,90,29.89,1.0,Calm,Calm,-,N/A,,Partly Cloudy,0,2013-04-29 11:51:00
7:17 AM,68.0,64.4,88,29.89,0.2,Calm,Calm,-,N/A,Fog,Fog,0,2013-04-29 12:17:00
7:51 AM,68.0,66.0,93,29.89,0.2,Calm,Calm,-,N/A,Fog,Fog,0,2013-04-29 12:51:00
8:21 AM,69.8,68.0,94,29.90,0.8,Calm,Calm,-,N/A,,Scattered Clouds,0,2013-04-29 13:21:00
8:32 AM,71.6,69.8,94,29.90,1.5,Calm,Calm,-,N/A,,Scattered Clouds,0,2013-04-29 13:32:00
8:36 AM,71.6,69.8,94,29.90,3.0,Calm,Calm,-,N/A,,Scattered Clouds,0,2013-04-29 13:36:00
8:51 AM,72.0,69.1,91,29.88,3.0,North,8.1,-,N/A,,Partly Cloudy,10,2013-04-29 13:51:00
9:51 AM,78.1,66.9,68,29.89,8.0,East,4.6,-,N/A,,Scattered Clouds,80,2013-04-29 14:51:00
10:51 AM,80.1,66.9,64,29.89,10.0,East,4.6,-,N/A,,Scattered Clouds,80,2013-04-29 15:51:00
11:51 AM,81.0,64.9,58,29.89,10.0,East,4.6,-,N/A,,Scattered Clouds,80,2013-04-29 16:51:00
12:51 PM,80.1,68.0,67,29.89,10.0,East,11.5,-,N/A,,Mostly Cloudy,90,2013-04-29 17:51:00
1:51 PM,84.0,68.0,58,29.86,10.0,ESE,13.8,18.4,N/A,,Mostly Cloudy,120,2013-04-29 18:51:00
2:51 PM,82.9,68.0,60,29.83,10.0,East,15.0,-,N/A,,Scattered Clouds,90,2013-04-29 19:51:00
3:02 PM,82.4,69.8,66,29.83,10.0,ESE,13.8,-,N/A,Thunderstorm,Thunderstorm,110,2013-04-29 20:02:00
3:51 PM,77.0,70.0,79,29.80,8.0,ESE,18.4,-,0.01,Rain-Thunderstorm,Thunderstorms and Rain,110,2013-04-29 20:51:00
4:31 PM,77.0,71.6,83,29.81,9.0,SE,18.4,-,0.06,Rain-Thunderstorm,Light Thunderstorms and Rain,130,2013-04-29 21:31:00
4:51 PM,77.0,71.1,82,29.81,10.0,East,13.8,-,0.06,Rain-Thunderstorm,Light Thunderstorms and Rain,90,2013-04-29 21:51:00
5:12 PM,75.2,71.6,89,29.80,10.0,East,12.7,-,0.00,Rain,Rain,100,2013-04-29 22:12:00
5:16 PM,75.2,71.6,89,29.80,10.0,East,11.5,-,0.00,Rain,Rain,90,2013-04-29 22:16:00
5:31 PM,75.2,71.6,89,29.80,10.0,East,13.8,-,0.00,Rain,Light Rain,90,2013-04-29 22:31:00
5:51 PM,75.9,71.1,85,29.79,10.0,East,13.8,-,0.01,,Mostly Cloudy,100,2013-04-29 22:51:00
6:18 PM,75.2,71.6,89,29.79,9.0,East,13.8,-,N/A,Thunderstorm,Thunderstorm,90,2013-04-29 23:18:00
6:51 PM,75.0,71.1,87,29.78,6.0,East,13.8,-,N/A,Thunderstorm,Mostly Cloudy,90,2013-04-29 23:51:00
7:00 PM,75.2,71.6,89,29.78,6.0,East,13.8,-,N/A,Thunderstorm,Mostly Cloudy,90,2013-04-30 00:00:00
7:22 PM,75.2,71.6,89,29.79,8.0,East,13.8,-,0.00,Rain-Thunderstorm,Light Thunderstorms and Rain,100,2013-04-30 00:22:00
7:51 PM,75.0,71.1,87,29.81,1.8,ESE,4.6,-,0.08,Rain-Thunderstorm,Heavy Thunderstorms and Rain,110,2013-04-30 00:51:00
8:07 PM,68.0,64.4,88,29.82,3.0,North,31.1,40.3,0.22,Rain-Thunderstorm,Thunderstorms and Rain,10,2013-04-30 01:07:00
8:20 PM,69.8,62.6,78,29.81,7.0,NE,6.9,24.2,0.24,Rain-Thunderstorm,Light Thunderstorms and Rain,50,2013-04-30 01:20:00
8:51 PM,71.1,66.9,87,29.81,10.0,East,16.1,23.0,0.28,Thunderstorm,Thunderstorm,90,2013-04-30 01:51:00
9:19 PM,69.8,64.4,83,29.83,10.0,East,15.0,-,N/A,,Overcast,80,2013-04-30 02:19:00
9:51 PM,71.1,66.0,84,29.82,10.0,ESE,9.2,-,N/A,,Mostly Cloudy,110,2013-04-30 02:51:00
10:51 PM,71.1,66.0,84,29.82,10.0,East,10.4,-,N/A,,Scattered Clouds,100,2013-04-30 03:51:00
11:46 PM,71.6,64.4,78,29.83,10.0,East,8.1,-,N/A,,Scattered Clouds,90,2013-04-30 04:46:00
11:51 PM,71.1,66.0,84,29.83,10.0,East,9.2,-,N/A,,Scattered Clouds,90,2013-04-30 04:51:00